Powrót do katalogu

ZINYUAN-3

AktywnyNaukaSSO
NORAD 45939·PAYLOAD·🇨🇳 China

Wystrzelony Jul 25, 2020 z Taiyuan Satellite Launch Center

Loading…

Następne Przeloty (najbliższe 24 godziny)

TLE

ŚwieżeSource: Space-Track

Epoka: Sep 14, 2026, 15:21 UTC

1 45939U 20051A   26257.64005103  .00003108  00000-0  14182-3 0  9990
2 45939  97.5295 324.6828 0006619  50.8106 309.3716 15.21355616340948

Śledź ZINYUAN-3 w czasie rzeczywistym z AllMySat

Download on the App Store